Weather History for KOTM - November, 2013

Change the Weather History Date:

Tuesday, November 26, 2013

  Actual Average Record
Temperature  
Mean Temperature 24 °F 34 °F  
Max Temperature 32 °F 43 °F 71 °F (1990)
Min Temperature 16 °F 25 °F 1 °F (1977)
Degree Days  
Heating Degree Days 41 31  
Month to date heating degree days 693 642  
Since 1 July heating degree days 1181 1166  
Cooling Degree Days 0 0  
Month to date cooling degree days 0 0  
Year to date cooling degree days 1014 938  
Moisture  
Dew Point 16 °F    
Average Humidity 65    
Maximum Humidity 88    
Minimum Humidity 42    
Precipitation  
Precipitation 0.00 in 0.07 in 1.11 in (1926)
Month to date precipitation 1.74 2.10  
Year to date precipitation 35.86 35.42  
Sea Level Pressure  
Sea Level Pressure 30.24 in    
Wind  
Wind Speed 16 mph (NW)    
Max Wind Speed 32 mph    
Max Gust Speed 40 mph    
Visibility 10 miles    
Events      
T = Trace of Precipitation, MM = Missing Value Source: NWS Daily Summary

Daily Weather History Graph

Daily Weather History Graph

Search for Another Location

Airport or City:

Trip Planner

Search our weather history database for the weather conditions in past years. The results will help you decide how hot, cold, wet, or windy it might be!

Date:

Astronomy

Nov. 26, 2013 Rise Set
Actual Time 7:10 AM CST 4:43 PM CST
Civil Twilight 6:40 AM CST 5:13 PM CST
Nautical Twilight 6:06 AM CST 5:47 PM CST
Astronomical Twilight 5:33 AM CST 6:20 PM CST
Moon 12:11 AM CST (11/26) 12:53 PM CST (11/26)
Length of Visible Light 10h 33m
Length of Day
9h 33m
Last Quarter, 41% of the Moon is Illuminated
Nov 26
Last Quarter
Dec 2
New
Dec 9
First Quarter
Dec 17
Full
Dec 25
Last Quarter

Hourly Weather History & Observations

Time (CST) Temp. Windchill Dew Point Humidity Pressure Visibility Wind Dir Wind Speed Gust Speed Precip Events Conditions
12:53 AM 25.0 °F 17.1 °F 21.9 °F 88% 30.14 in 10.0 mi West 6.9 mph - N/A   Clear
1:53 AM 25.0 °F 16.3 °F 21.9 °F 88% 30.15 in 10.0 mi WNW 8.1 mph - N/A   Clear
2:53 AM 25.0 °F 16.3 °F 21.9 °F 88% 30.15 in 9.0 mi WNW 8.1 mph - N/A   Clear
3:53 AM 23.0 °F 14.7 °F 19.9 °F 88% 30.13 in 8.0 mi WNW 6.9 mph - N/A   Clear
4:53 AM 23.0 °F 15.8 °F 19.9 °F 88% 30.15 in 9.0 mi WNW 5.8 mph - N/A   Mostly Cloudy
5:53 AM 27.0 °F 19.5 °F 23.0 °F 85% 30.17 in 10.0 mi WNW 6.9 mph - N/A   Overcast
6:53 AM 28.0 °F 19.3 °F 23.0 °F 81% 30.16 in 10.0 mi NW 9.2 mph - N/A   Overcast
7:53 AM 28.9 °F 18.6 °F 24.1 °F 82% 30.18 in 10.0 mi NNW 12.7 mph - N/A   Overcast
8:53 AM 30.0 °F 17.5 °F 23.0 °F 75% 30.20 in 10.0 mi NNW 19.6 mph 26.5 mph N/A   Overcast
9:30 AM 30.2 °F 15.2 °F 19.4 °F 64% 30.19 in 10.0 mi NNW 29.9 mph 36.8 mph N/A   Mostly Cloudy
9:39 AM 28.4 °F 13.3 °F 19.4 °F 69% 30.18 in 10.0 mi NNW 27.6 mph 36.8 mph N/A   Mostly Cloudy
9:53 AM 30.0 °F 15.4 °F 19.9 °F 66% 30.22 in 10.0 mi NNW 27.6 mph 35.7 mph N/A   Overcast
10:28 AM 30.2 °F 17.1 °F 19.4 °F 64% 30.20 in 10.0 mi NNW 21.9 mph 32.2 mph N/A   Mostly Cloudy
10:41 AM 28.4 °F 14.1 °F 17.6 °F 64% 30.20 in 10.0 mi NW 24.2 mph 32.2 mph N/A   Mostly Cloudy
10:53 AM 28.9 °F 14.0 °F 17.1 °F 61% 30.25 in 10.0 mi NNW 27.6 mph 36.8 mph N/A   Overcast
11:13 AM 28.4 °F 13.8 °F 15.8 °F 59% 30.21 in 10.0 mi NNW 25.3 mph 36.8 mph N/A   Scattered Clouds
11:53 AM 28.9 °F 14.3 °F 15.1 °F 56% 30.22 in 10.0 mi NNW 26.5 mph 34.5 mph N/A   Scattered Clouds
12:53 PM 28.9 °F 14.3 °F 10.9 °F 47% 30.25 in 10.0 mi NNW 26.5 mph 35.7 mph N/A   Partly Cloudy
1:53 PM 28.0 °F 13.3 °F 9.0 °F 45% 30.25 in 10.0 mi NNW 25.3 mph 33.4 mph N/A   Clear
2:53 PM 27.0 °F 12.2 °F 10.0 °F 49% 30.26 in 10.0 mi NW 24.2 mph 33.4 mph N/A   Mostly Cloudy
3:53 PM 25.0 °F 9.9 °F 10.0 °F 53% 30.28 in 10.0 mi NNW 23.0 mph 28.8 mph N/A   Mostly Cloudy
4:53 PM 23.0 °F 8.0 °F 9.0 °F 55% 30.30 in 10.0 mi NNW 20.7 mph 27.6 mph N/A   Clear
5:53 PM 21.9 °F 8.7 °F 10.0 °F 60% 30.31 in 10.0 mi NW 15.0 mph - N/A   Clear
6:53 PM 21.0 °F 8.1 °F 10.0 °F 63% 30.32 in 10.0 mi NNW 13.8 mph - N/A   Clear
7:53 PM 19.0 °F 6.8 °F 10.0 °F 68% 30.34 in 10.0 mi NNW 11.5 mph - N/A   Clear
8:53 PM 18.0 °F 6.1 °F 9.0 °F 68% 30.35 in 10.0 mi NW 10.4 mph - N/A   Clear
9:53 PM 18.0 °F 4.8 °F 9.0 °F 68% 30.35 in 10.0 mi NW 12.7 mph - N/A   Clear
10:53 PM 16.0 °F 2.9 °F 8.1 °F 71% 30.36 in 10.0 mi NW 11.5 mph - N/A   Clear
11:53 PM 16.0 °F 2.9 °F 8.1 °F 71% 30.35 in 10.0 mi NW 11.5 mph - N/A   Clear